Location: Arrakis Observatory
(44.1122°N, 95.7153°W)
Time: 10:05:43
(UTC-05:00)

Amateur Radio Satellites - All Passes

Search period start: 21 October 2014 09:35
Search period end: 22 October 2014 09:35
Location: Arrakis Observatory, 44.1122°N, 95.7153°W

Satellite Date Start Highest point End Downlink Frequencies (MHz)
Time Altitude Azimuth
HO-68 21 Oct 09:37:15 09:43:36 32° 95° (E) 09:49:53 435.675 MHz FM
JAS-2 21 Oct 09:37:32 09:40:48 13° 310° (NW) 09:44:07 435.800 - 435.900 CW/SSB, 435.910 FM
RS-15 21 Oct 10:12:20 10:22:06 37° 253° (WSW) 10:32:16 29.354 - 29.394 USB, Beacon 29.352 USB
Saudisat 1A 21 Oct 10:21:22 10:25:27 37° 313° (NW) 10:29:34 436.775 MHz
UKube-1 21 Oct 10:28:18 10:32:06 28° 96° (E) 10:35:52 145.840 MHz, 145.915 MHz
MaSat-1 21 Oct 10:29:12 10:31:55 51° 60° (ENE) 10:34:22 437.345 MHz
FUNcube-1 21 Oct 11:01:18 11:04:51 25° 94° (E) 11:08:20 145.950 - 145.970 MHz USB
Oscar 11 21 Oct 11:13:06 11:17:26 81° 103° (ESE) 11:21:44 145.825 FM, Beacon 2401.500 USB
HO-68 21 Oct 11:24:36 11:31:33 53° 294° (WNW) 11:38:28 435.675 MHz FM
ZACube-1 21 Oct 11:51:19 11:55:39 88° 103° (ESE) 11:59:52 437.345 MHz
UKube-1 21 Oct 12:04:28 12:08:15 29° 293° (WNW) 12:12:00 145.840 MHz, 145.915 MHz
PCSat 21 Oct 12:10:54 12:13:07 12° 31° (NNE) 12:15:20 145.825 MHz
JAS-1B 21 Oct 12:20:37 12:22:16 11° 53° (NE) 12:23:55 435.800 - 435.900 CW/SSB
FUNcube-1 21 Oct 12:37:28 12:41:16 30° 292° (WNW) 12:44:58 145.950 - 145.970 MHz USB
KITSAT 1 21 Oct 12:47:05 12:54:07 34° 108° (ESE) 13:01:10 435.175 FM
Oscar 16 21 Oct 12:47:57 12:51:41 21° 62° (ENE) 12:55:25 437.025 USB, Beacon 2401.1428
Oscar 11 21 Oct 12:51:36 12:52:58 11° 300° (WNW) 12:54:20 145.825 FM, Beacon 2401.500 USB
Uribyol 2 21 Oct 13:02:21 13:04:36 13° 56° (NE) 13:06:52 436.500 FM
ITAMSAT 1 21 Oct 13:07:11 13:09:37 13° 57° (ENE) 13:12:02 435.822 SSB
AO-Echo 21 Oct 13:14:26 13:17:34 17° 60° (ENE) 13:20:47 ?
HO-68 21 Oct 13:15:16 13:17:40 12° 315° (NW) 13:20:05 435.675 MHz FM
SO-50 21 Oct 13:29:43 13:32:22 16° 109° (ESE) 13:35:03 436.795 FM
Sapphire 21 Oct 13:29:46 13:34:40 33° 48° (NE) 13:39:32 437.095 MHz 1200 baud AX-25 AFSK
ZACube-1 21 Oct 13:30:48 13:31:19 10° 302° (WNW) 13:31:50 437.345 MHz
Oscar 19 21 Oct 13:40:27 13:45:29 56° 71° (ENE) 13:50:31 437.125 CW, 437.150 USB
AO-27 21 Oct 13:49:14 13:53:43 30° 65° (ENE) 13:58:15 436.795 MHz FM
AO-7 21 Oct 13:49:38 13:51:07 11° 36° (NE) 13:52:36 29.400 - 29.500 MHz
PCSat 21 Oct 13:52:36 13:57:54 50° 53° (NE) 14:03:09 145.825 MHz
JAS-1B 21 Oct 14:05:57 14:12:02 75° 73° (ENE) 14:17:42 435.800 - 435.900 CW/SSB
Oscar 16 21 Oct 14:25:32 14:30:37 57° 259° (W) 14:35:43 437.025 USB, Beacon 2401.1428
ISS 21 Oct 14:35:50 14:38:52 33° 139° (SE) 14:41:55 145.800 FM
Oscar 10/S400 21 Oct 14:36:55 14:53:38 34° 152° (SSE) 15:16:06 145.825 - 145.975 CW/USB, Beacon 145.810 USB
Uribyol 2 21 Oct 14:38:02 14:43:15 83° 74° (ENE) 14:48:31 436.500 FM
Gurwin Techsat 1B 21 Oct 14:41:04 14:46:05 45° 69° (ENE) 14:51:08 435.225 FM
KITSAT 1 21 Oct 14:41:08 14:49:06 61° 309° (NW) 14:57:07 435.175 FM
ITAMSAT 1 21 Oct 14:43:06 14:48:18 87° 75° (ENE) 14:53:34 435.822 SSB
AO-Echo 21 Oct 14:50:59 14:55:47 65° 259° (WSW) 15:00:47 ?
TMSAT-1 21 Oct 14:54:48 14:59:48 44° 69° (ENE) 15:04:50 436.925 FM
SO-50 21 Oct 15:07:53 15:12:21 66° 307° (NW) 15:17:00 436.795 FM
Sapphire 21 Oct 15:13:05 15:18:13 43° 247° (WSW) 15:23:18 437.095 MHz 1200 baud AX-25 AFSK
UOSAT-12 21 Oct 15:13:37 15:16:30 16° 110° (ESE) 15:19:25 437.025 FM, 437.400 FM
Oscar 19 21 Oct 15:21:31 15:25:10 19° 268° (W) 15:28:50 437.125 CW, 437.150 USB
AO-27 21 Oct 15:28:19 15:33:07 37° 263° (W) 15:37:58 436.795 MHz FM
AO-7 21 Oct 15:34:07 15:41:39 41° 59° (ENE) 15:49:13 29.400 - 29.500 MHz
PCSat 21 Oct 15:36:34 15:41:01 26° 252° (WSW) 15:45:26 145.825 MHz
JAS-1B 21 Oct 16:00:04 16:03:21 15° 270° (W) 16:06:31 435.800 - 435.900 CW/SSB
ISS 21 Oct 16:12:20 16:15:32 42° 337° (NNW) 16:18:44 145.800 FM
Uribyol 2 21 Oct 16:21:06 16:23:23 13° 272° (W) 16:25:41 436.500 FM
JAS-2 21 Oct 16:21:47 16:25:20 16° 52° (NE) 16:29:07 435.800 - 435.900 CW/SSB, 435.910 FM
Gurwin Techsat 1B 21 Oct 16:21:55 16:26:14 25° 266° (W) 16:30:36 435.225 FM
ITAMSAT 1 21 Oct 16:26:29 16:28:29 12° 272° (W) 16:30:31 435.822 SSB
Uosat F 21 Oct 16:32:28 16:37:21 55° 71° (ENE) 16:42:17 435.120 FM
TMSAT-1 21 Oct 16:35:33 16:39:54 25° 266° (W) 16:44:16 436.925 FM
KITSAT 1 21 Oct 16:40:26 16:46:21 21° 334° (NNW) 16:52:17 435.175 FM
SO-50 21 Oct 16:51:23 16:53:51 14° 329° (NNW) 16:56:21 436.795 FM
UOSAT-12 21 Oct 16:51:30 16:56:07 66° 307° (NW) 17:00:50 437.025 FM, 437.400 FM
Hamsat 21 Oct 16:58:18 16:59:51 12° 61° (ENE) 17:01:24 145.90 MHz
Saudisat 1A 21 Oct 17:06:56 17:11:04 37° 47° (NE) 17:15:11 436.775 MHz
AO-7 21 Oct 17:26:19 17:34:17 50° 259° (W) 17:42:18 29.400 - 29.500 MHz
ISS 21 Oct 17:50:08 17:52:50 22° 357° (N) 17:55:31 145.800 FM
OPAL 21 Oct 18:00:04 18:04:21 28° 97° (E) 18:08:34 ?
JAS-2 21 Oct 18:03:26 18:09:14 84° 74° (ENE) 18:15:52 435.800 - 435.900 CW/SSB, 435.910 FM
Uosat F 21 Oct 18:13:00 18:16:29 19° 268° (W) 18:20:00 435.120 FM
AO-40 21 Oct 18:13:44 00:00:36 39° 184° (S) 05:48:50 Beacon 2401.320
Hamsat 21 Oct 18:31:00 18:35:13 73° 258° (WSW) 18:39:26 145.90 MHz
UOSAT-12 21 Oct 18:34:35 18:37:11 15° 328° (NNW) 18:39:48 437.025 FM, 437.400 FM
KITSAT 1 21 Oct 18:41:09 18:45:27 15° 5° (N) 18:49:45 435.175 FM
Saudisat 1A 21 Oct 18:46:45 18:50:31 28° 245° (WSW) 18:54:16 436.775 MHz
SO-67 21 Oct 19:05:38 19:08:42 31° 71° (ENE) 19:11:47 435.3500 MHz FM
ISS 21 Oct 19:27:10 19:30:13 31° 17° (NNE) 19:33:15 145.800 FM
STRAND 1 21 Oct 19:38:24 19:43:01 32° 96° (E) 19:47:35 ?
OPAL 21 Oct 19:38:44 19:43:17 37° 295° (WNW) 19:47:47 ?
JAS-2 21 Oct 19:52:04 19:55:22 15° 276° (W) 19:58:54 435.800 - 435.900 CW/SSB, 435.910 FM
HO-68 21 Oct 20:07:54 20:13:53 30° 58° (ENE) 20:19:54 435.675 MHz FM
KITSAT 1 21 Oct 20:37:28 20:44:11 28° 34° (NE) 20:50:52 435.175 FM
SO-67 21 Oct 20:39:37 20:41:46 16° 268° (W) 20:43:56 435.3500 MHz FM
ISS 21 Oct 21:03:47 21:07:05 58° 216° (SW) 21:10:22 145.800 FM
ZACube-1 21 Oct 21:16:32 21:17:32 11° 59° (ENE) 21:18:31 437.345 MHz
STRAND 1 21 Oct 21:17:34 21:22:11 34° 294° (WNW) 21:26:47 ?
UKube-1 21 Oct 21:25:12 21:29:00 30° 67° (ENE) 21:32:50 145.840 MHz, 145.915 MHz
HO-68 21 Oct 21:54:06 22:01:09 61° 258° (WSW) 22:08:17 435.675 MHz FM
SO-50 21 Oct 21:57:53 22:02:01 28° 42° (NE) 22:06:12 436.795 FM
FUNcube-1 21 Oct 21:58:51 22:02:42 27° 67° (ENE) 22:06:31 145.950 - 145.970 MHz USB
Oscar 11 21 Oct 22:09:17 22:13:36 75° 75° (ENE) 22:17:57 145.825 FM, Beacon 2401.500 USB
RS-15 21 Oct 22:26:02 22:35:32 36° 107° (ESE) 22:44:56 29.354 - 29.394 USB, Beacon 29.352 USB
KITSAT 1 21 Oct 22:32:37 22:40:45 86° 58° (ENE) 22:48:50 435.175 FM
ZACube-1 21 Oct 22:48:35 22:53:12 85° 76° (ENE) 22:57:47 437.345 MHz
UKube-1 21 Oct 23:01:30 23:05:11 27° 264° (W) 23:08:53 145.840 MHz, 145.915 MHz
FUNcube-1 21 Oct 23:34:47 23:38:57 33° 264° (W) 23:43:05 145.950 - 145.970 MHz USB
SO-50 21 Oct 23:38:08 23:42:49 50° 241° (WSW) 23:47:31 436.795 FM
UOSAT-12 21 Oct 23:40:08 23:44:08 26° 42° (NE) 23:48:05 437.025 FM, 437.400 FM
Oscar 11 21 Oct 23:49:25 23:50:18 11° 272° (W) 23:51:11 145.825 FM, Beacon 2401.500 USB
MaSat-1 22 Oct 00:09:16 00:11:36 15° 106° (ESE) 00:13:51 437.345 MHz
ZACube-1 22 Oct 00:29:27 00:30:09 10° 272° (W) 00:30:51 437.345 MHz
KITSAT 1 22 Oct 00:29:28 00:35:08 21° 257° (WSW) 00:40:48 435.175 FM
RS-15 22 Oct 00:36:07 00:47:04 70° 309° (NW) 00:58:03 29.354 - 29.394 USB, Beacon 29.352 USB
UOSAT-12 22 Oct 01:19:58 01:24:32 50° 241° (WSW) 01:29:01 437.025 FM, 437.400 FM
MaSat-1 22 Oct 01:42:56 01:47:03 54° 300° (WNW) 01:50:47 437.345 MHz
JAS-1B 22 Oct 01:47:42 01:52:12 19° 92° (E) 01:57:09 435.800 - 435.900 CW/SSB
Oscar 19 22 Oct 01:51:40 01:55:00 17° 91° (E) 01:58:18 437.125 CW, 437.150 USB
Oscar 16 22 Oct 02:35:43 02:40:38 45° 99° (E) 02:45:31 437.025 USB, Beacon 2401.1428
Uribyol 2 22 Oct 02:49:52 02:54:14 26° 94° (E) 02:58:34 436.500 FM
RS-15 22 Oct 02:52:35 03:01:48 30° 339° (NNW) 03:11:10 29.354 - 29.394 USB, Beacon 29.352 USB
ITAMSAT 1 22 Oct 02:55:00 02:59:27 28° 95° (E) 03:03:53 435.822 SSB
AO-Echo 22 Oct 02:56:31 03:01:28 38° 97° (E) 03:06:23 ?
Gurwin Techsat 1B 22 Oct 02:56:57 03:00:07 16° 89° (E) 03:03:15 435.225 FM
TMSAT-1 22 Oct 03:10:21 03:13:27 16° 89° (E) 03:16:31 436.925 FM
Oscar 19 22 Oct 03:29:42 03:34:46 61° 288° (WNW) 03:39:47 437.125 CW, 437.150 USB
JAS-1B 22 Oct 03:36:53 03:43:17 80° 287° (WNW) 03:50:55 435.800 - 435.900 CW/SSB
AO-27 22 Oct 03:39:16 03:44:31 71° 103° (ESE) 03:49:43 436.795 MHz FM
Sapphire 22 Oct 04:14:36 04:18:21 20° 106° (ESE) 04:22:08 437.095 MHz 1200 baud AX-25 AFSK
Oscar 16 22 Oct 04:15:37 04:19:44 25° 296° (WNW) 04:23:51 437.025 USB, Beacon 2401.1428
Uribyol 2 22 Oct 04:28:57 04:33:51 42° 292° (WNW) 04:38:42 436.500 FM
ITAMSAT 1 22 Oct 04:34:11 04:39:03 40° 292° (WNW) 04:43:53 435.822 SSB
Gurwin Techsat 1B 22 Oct 04:35:18 04:40:37 71° 287° (WNW) 04:45:54 435.225 FM
AO-Echo 22 Oct 04:35:30 04:40:05 31° 294° (WNW) 04:44:41 ?
PCSat 22 Oct 04:36:17 04:41:01 32° 110° (ESE) 04:45:48 145.825 MHz
Uosat F 22 Oct 04:40:06 04:42:58 15° 90° (E) 04:45:49 435.120 FM
TMSAT-1 22 Oct 04:48:36 04:53:54 72° 287° (WNW) 04:59:11 436.925 FM
RS-15 22 Oct 05:09:49 05:18:49 27° 15° (NNE) 05:28:00 29.354 - 29.394 USB, Beacon 29.352 USB
JAS-2 22 Oct 05:12:23 05:16:22 15° 84° (E) 05:20:22 435.800 - 435.900 CW/SSB, 435.910 FM
OPAL 22 Oct 05:16:02 05:21:07 63° 70° (ENE) 05:26:11 ?
AO-27 22 Oct 05:20:05 05:23:28 18° 301° (WNW) 05:26:50 436.795 MHz FM
AO-7 22 Oct 05:25:39 05:33:45 53° 102° (ESE) 05:41:49 29.400 - 29.500 MHz
JAS-1B 22 Oct 05:29:44 05:33:12 15° 304° (NW) 05:36:57 435.800 - 435.900 CW/SSB
Sapphire 22 Oct 05:55:52 06:01:15 65° 304° (NW) 06:06:40 437.095 MHz 1200 baud AX-25 AFSK
Hamsat 22 Oct 06:16:05 06:18:54 17° 92° (E) 06:21:42 145.90 MHz
Uosat F 22 Oct 06:17:12 06:22:15 69° 287° (WNW) 06:27:15 435.120 FM
Gurwin Techsat 1B 22 Oct 06:18:12 06:19:37 11° 305° (NW) 06:21:03 435.225 FM
PCSat 22 Oct 06:19:12 06:24:19 41° 309° (NW) 06:29:28 145.825 MHz
TMSAT-1 22 Oct 06:31:22 06:32:53 11° 305° (NW) 06:34:23 436.925 FM
JAS-2 22 Oct 06:54:48 07:02:30 73° 102° (ESE) 07:10:21 435.800 - 435.900 CW/SSB, 435.910 FM
STRAND 1 22 Oct 06:55:39 07:00:37 54° 71° (ENE) 07:05:39 ?
OPAL 22 Oct 06:57:00 07:00:24 18° 266° (W) 07:03:47 ?
AO-7 22 Oct 07:18:48 07:26:19 40° 301° (WNW) 07:33:50 29.400 - 29.500 MHz
RS-15 22 Oct 07:23:16 07:34:12 58° 46° (NE) 07:45:32 29.354 - 29.394 USB, Beacon 29.352 USB
Sapphire 22 Oct 07:42:44 07:45:46 15° 326° (NW) 07:48:49 437.095 MHz 1200 baud AX-25 AFSK
Hamsat 22 Oct 07:51:05 07:55:03 42° 288° (WNW) 07:59:01 145.90 MHz
Uosat F 22 Oct 07:59:35 08:00:06 10° 306° (NW) 08:00:36 435.120 FM
SO-67 22 Oct 08:00:07 08:03:11 29° 96° (E) 08:06:15 435.3500 MHz FM
PCSat 22 Oct 08:07:57 08:09:17 11° 332° (NNW) 08:10:36 145.825 MHz
STRAND 1 22 Oct 08:36:27 08:40:09 20° 268° (W) 08:43:52 ?
JAS-2 22 Oct 08:40:40 08:46:53 29° 300° (WNW) 08:53:16 435.800 - 435.900 CW/SSB, 435.910 FM
Saudisat 1A 22 Oct 08:53:43 08:57:58 51° 120° (ESE) 09:02:15 436.775 MHz
AO-7 22 Oct 09:15:59 09:16:48 10° 325° (NW) 09:17:37 29.400 - 29.500 MHz
HO-68 22 Oct 09:20:47 09:26:30 25° 92° (E) 09:32:10 435.675 MHz FM
